User: anonymous   Login
Location: Albany
(35.0000°S, 118.0000°E)
Time: 13:27:18
(UTC-04:00)
Language:

Centaur D-1AR AC-48 - Orbit

View from above orbital plane
View from above orbital plane
View from above satellite
View from above satellite

Ground track
Ground track

The orbit data is extracted from the following two-line orbital elements,

1 10779U 78035B   16120.64091216 -.00000148  00000-0 -19059-2 0  9997
2 10779  21.1573 212.5359 7175306 118.6931 351.1059  2.22653470309478
Epoch (UTC): 29 April 2016 15:22:54
Eccentricity: 0.7175306
inclination: 21.1573°
perigee height: 619 km
apogee height: 36170 km
right ascension of ascending node: 212.5359°
argument of perigee: 118.6931°
revolutions per day: 2.22653470
mean anomaly at epoch: 351.1059°
orbit number at epoch: 30947

The dashed part of the orbit path shows where the satellite is in the earth's shadow,  

DLR